Temperature
14 14 15 15 16 16 18 20 22 22 23 23 23 23 23 21 21 18 17 17 17 17 17 17 17 17 17 17 17 17 17 17 17 17 17 16 16 16 16 16 16 16 16 16 16 16 16 16 16
14 14 14 16 16 16 18 20 21 21 22 22 22 23 22 20 19 18 17 17 17 17 17 17 17 17 17 17 17 17 17 17 17 16 16 16 16 16 16 16 16 16 16 16 16 16 16 16 16
13 13 15 15 16 17 19 20 20 21 21 21 22 21 21 19 18 17 17 17 16 16 17 17 17 17 17 17 17 17 17 16 16 16 16 16 16 16 16 16 16 16 16 16 16 16 16 16 16
13 14 15 15 17 18 19 19 19 20 20 21 21 20 18 17 17 16 16 16 16 16 16 16 16 17 16 16 17 16 16 16 16 16 16 16 16 16 16 16 16 16 16 16 16 16 16 16 16
13 14 14 15 17 18 19 19 19 19 20 20 20 19 17 16 16 16 16 16 16 16 16 16 16 16 16 16 16 16 16 16 16 16 16 16 16 16 16 16 16 16 16 16 16 16 16 15 16
13 14 14 15 17 18 19 19 19 19 20 20 20 18 16 16 16 16 16 16 16 16 16 16 16 16 16 16 16 16 16 16 16 16 16 16 16 16 16 16 16 16 16 16 16 16 16 15 15
13 14 15 16 17 18 18 18 18 18 19 19 19 18 16 15 15 15 16 16 16 16 16 16 16 16 16 16 16 16 16 16 16 16 16 16 16 16 16 16 16 16 15 16 16 15 15 15 15
12 14 15 16 17 17 18 18 18 18 18 18 18 17 16 15 15 15 15 15 15 15 15 15 15 15 15 15 15 15 15 15 15 15 15 15 15 15 15 15 15 15 15 15 15 15 15 15 15
13 13 14 16 16 16 17 17 17 17 17 16 16 16 15 15 15 15 14 15 15 15 15 15 15 15 15 15 15 15 15 15 15 15 15 15 15 15 15 15 15 15 15 15 15 15 15 15 15
13 13 14 15 16 16 16 16 16 16 16 16 15 15 15 14 14 14 14 14 14 14 14 15 15 15 15 15 15 15 15 15 15 15 15 15 15 15 15 15 15 15 15 15 15 15 15 15 15
13 13 14 15 15 15 15 16 16 16 15 16 15 15 14 14 14 14 14 14 14 14 14 14 14 14 15 14 15 14 14 14 14 14 14 14 14 14 14 14 15 15 15 15 15 15 15 15 15
13 13 14 14 14 14 15 15 15 15 15 15 15 14 14 14 14 13 13 13 13 14 14 14 14 14 14 14 14 14 14 14 14 14 14 14 14 14 14 14 14 14 14 15 15 14 14 14 14
13 13 14 14 14 14 14 14 14 14 14 14 14 14 14 14 13 13 13 13 13 13 13 13 14 14 14 14 14 14 14 14 14 14 14 14 14 14 14 14 14 14 14 14 14 14 14 14 14
13 13 13 14 14 14 14 14 14 14 14 14 14 13 13 13 13 13 13 13 13 13 13 13 13 13 14 13 13 13 13 13 13 13 13 13 13 13 13 13 14 14 14 14 14 14 14 14 14
13 13 13 14 14 14 13 13 14 14 14 14 14 13 13 13 13 12 12 12 12 12 13 13 13 13 13 13 13 13 13 13 13 13 13 13 13 13 13 13 13 13 13 13 13 13 13 13 13
13 13 13 14 14 14 13 12 15 14 14 14 14 13 13 13 13 12 12 12 12 12 12 12 12 12 12 13 13 13 12 12 12 12 12 12 12 12 12 13 13 13 13 13 13 13 13 13 13
13 13 13 13 14 14 13 12 14 15 14 14 14 13 13 13 12 12 12 12 12 12 12 12 12 12 12 12 12 12 12 12 12 12 12 12 12 12 12 12 12 12 12 12 12 12 12 13 13
12 13 13 13 13 13 13 12 14 15 15 14 14 14 13 13 12 12 12 11 11 11 11 11 11 11 12 12 12 12 12 11 12 12 12 12 12 11 12 12 12 12 12 12 12 12 12 12 12
13 12 12 13 13 13 12 12 13 15 14 14 14 14 13 13 12 12 12 11 11 11 11 11 11 11 11 11 11 11 11 11 11 11 11 11 11 11 11 11 11 12 12 12 12 12 11 11 11
12 12 12 13 13 13 12 12 13 14 14 14 14 14 13 13 12 12 11 11 11 11 11 11 11 11 11 11 11 11 11 11 11 11 11 11 11 11 11 11 11 11 11 11 11 11 11 11 11
12 11 11 11 12 13 12 12 13 14 14 14 14 14 13 13 12 12 11 11 11 10 10 10 10 10 10 10 10 10 10 10 10 10 10 10 10 11 11 11 11 11 11 11 11 11 10 11 11
11 11 11 11 10 10 12 10 12 13 13 13 14 14 13 13 12 12 11 11 10 10 10 10 10 10 10 10 10 10 10 10 10 10 10 10 10 10 10 10 10 10 10 10 11 10 10 10 10
10 11 11 10 10 10 11 10 11 13 13 13 13 14 13 13 12 12 11 11 10 10 10 10 10 10 9 9 9 9 9 9 9 9 9 9 9 10 10 10 10 10 10 10 10 10 10 10 10
11 10 11 10 9 9 11 11 11 12 13 13 13 13 13 13 12 12 11 10 10 10 10 10 9 9 9 9 9 9 9 9 9 9 9 9 9 9 9 9 9 9 9 10 10 10 10 10 10
10 9 9 9 9 10 12 11 11 13 13 13 13 13 12 12 12 11 11 10 10 9 9 9 9 9 9 9 9 9 9 8 8 8 8 9 9 9 9 9 9 9 9 9 9 9 9 9 9
10 10 8 9 9 10 11 10 11 13 13 13 13 12 12 12 11 11 10 10 10 9 9 9 9 9 9 9 9 8 8 8 8 8 8 8 8 8 8 8 8 9 9 9 9 9 9 9 9
10 9 10 8 9 9 10 12 13 12 12 12 12 12 11 11 11 10 10 10 9 9 9 9 9 9 8 8 8 8 8 8 8 8 8 8 8 8 8 8 8 8 8 8 8 8 8 8 8
9 9 8 8 8 9 11 12 11 11 11 11 10 11 11 11 10 10 10 10 9 9 9 8 8 8 8 8 8 8 8 7 7 7 7 7 7 7 7 7 7 8 8 7 8 8 8 8 8
8 9 8 8 8 8 9 10 12 11 11 10 11 11 11 10 10 10 9 9 9 9 9 8 8 8 8 8 8 7 7 7 7 7 7 7 7 7 7 7 7 7 7 7 7 7 7 7 7
9 9 9 7 8 8 7 9 12 11 11 11 11 11 11 10 10 9 9 9 9 8 8 8 8 8 8 8 7 7 7 7 7 7 7 7 7 7 7 6 6 6 7 7 7 7 6 7 7
Wind_Speed
11 11 7 3 4 6 12 9 7 5 4 2 2 2 1 4 4 7 4 7 9 12 14 13 13 12 12 11 11 10 9 9 9 9 9 9 9 9 9 9 9 9 9 8 8 8 9 9 9
10 8 5 4 6 9 10 9 6 2 0 2 2 2 3 5 7 7 5 6 8 11 13 13 13 12 11 11 11 10 9 9 9 9 8 8 8 8 8 9 9 9 8 8 7 8 9 9 8
9 8 4 4 7 10 6 5 2 0 2 2 2 3 3 5 6 5 5 5 6 9 11 13 14 12 11 11 10 10 9 8 8 8 8 8 8 8 8 8 8 8 8 8 7 8 8 8 8
5 4 4 6 11 9 5 0 2 1 3 2 1 3 4 6 5 4 5 5 6 8 11 13 12 12 11 10 10 10 9 8 8 8 8 8 8 8 8 7 8 8 8 8 8 8 8 8 7
4 4 6 8 10 7 2 2 2 2 3 2 1 2 4 5 6 5 4 5 6 7 10 12 12 11 10 10 10 9 8 8 7 7 7 7 8 8 8 8 8 8 8 9 9 8 8 8 7
3 4 5 8 9 6 3 1 1 2 3 3 2 1 3 5 6 4 4 5 5 6 8 10 11 11 10 10 9 9 8 7 7 7 7 6 7 7 8 8 8 8 9 9 9 9 9 8 8
3 4 6 8 7 6 4 2 1 2 1 3 1 2 4 6 5 3 3 5 5 6 7 6 8 8 8 9 9 8 8 8 7 7 7 7 6 7 8 8 9 9 9 9 9 10 9 9 9
3 4 7 7 5 4 3 2 0 1 1 3 3 1 4 6 4 3 3 4 5 5 5 4 5 5 6 6 7 7 8 8 7 7 7 7 7 7 8 8 8 9 9 9 9 10 10 10 10
3 3 5 3 2 2 4 1 1 2 2 2 3 4 6 7 4 3 3 3 4 5 4 4 4 4 4 4 5 6 6 7 7 7 8 7 6 6 7 8 8 8 9 9 9 10 10 10 10
2 3 2 3 3 2 2 1 0 1 2 2 3 5 6 5 4 4 4 4 4 4 3 3 3 3 3 2 3 3 4 4 5 5 6 6 6 6 6 8 10 10 10 10 10 11 11 10 9
2 2 2 4 4 2 1 1 2 2 3 2 4 5 5 5 3 3 3 3 3 3 3 3 3 3 3 2 2 1 2 3 3 3 4 5 5 4 4 4 6 8 9 8 9 9 9 10 9
0 2 2 3 4 2 0 1 3 2 1 2 3 4 4 4 3 3 3 3 3 3 2 2 3 3 3 2 1 0 1 1 2 2 2 2 1 2 3 3 4 6 7 6 6 7 9 9 10
1 1 2 2 2 1 1 1 2 2 1 3 3 3 4 4 3 3 3 3 3 2 2 2 2 2 2 1 1 1 1 0 1 1 2 1 1 2 2 2 3 4 5 5 5 5 6 6 6
2 1 0 0 0 0 0 2 2 2 2 3 3 3 2 3 3 3 3 2 2 2 2 2 2 1 1 1 0 0 1 1 1 1 1 2 1 1 1 2 2 3 4 4 4 5 4 4 3
1 0 2 2 1 1 1 3 4 4 3 4 4 3 3 3 3 3 2 2 2 2 2 2 1 1 1 1 1 1 1 0 1 0 1 1 1 1 1 2 2 2 3 3 3 3 3 2 3
3 2 1 3 2 2 1 3 2 5 4 4 3 3 3 3 3 3 3 2 2 2 2 1 1 1 1 1 1 2 2 1 1 0 1 1 1 1 1 2 2 2 2 2 2 2 2 2 2
2 1 0 2 2 1 3 3 1 3 4 4 4 3 3 4 3 3 3 3 2 2 2 2 1 1 1 1 1 1 1 1 1 1 1 1 2 2 2 2 2 2 1 1 2 1 1 2 2
1 1 1 1 1 2 4 5 5 4 5 5 4 4 4 4 4 4 4 3 3 2 2 2 1 1 1 0 0 1 1 1 1 1 1 1 2 2 2 2 2 2 1 2 2 2 2 2 2
3 3 3 3 2 3 5 7 7 5 5 5 5 4 4 4 4 5 4 4 3 2 2 1 1 1 1 1 0 0 1 1 1 1 1 1 2 3 2 1 2 2 2 2 2 2 2 2 1
3 3 4 3 3 4 6 9 8 6 5 5 5 5 4 4 4 4 4 4 3 2 2 1 1 1 0 0 1 0 1 1 1 1 1 1 1 2 2 1 2 2 1 2 2 2 2 1 2
3 3 4 5 8 6 6 6 6 5 5 5 5 4 4 4 4 4 4 3 3 3 2 1 1 1 0 0 1 1 1 1 1 1 1 2 2 2 2 2 2 2 2 2 2 2 3 2 2
2 4 5 6 6 3 3 4 5 5 7 7 7 5 4 3 3 3 3 4 3 3 3 2 2 2 1 1 1 1 2 2 2 1 2 2 2 2 2 2 2 2 2 3 3 3 3 3 3
3 4 5 6 5 5 5 4 6 5 6 7 6 6 5 5 4 3 3 3 3 4 3 3 2 2 2 1 2 2 2 2 2 2 2 2 2 2 1 2 2 3 3 3 3 3 3 3 4
4 5 6 5 2 4 4 4 5 2 4 4 4 4 3 3 3 3 3 3 2 3 3 3 3 3 3 3 3 3 3 3 3 3 3 2 2 2 2 2 2 3 2 3 3 3 4 4 4
3 4 2 1 2 4 2 3 6 1 3 3 2 2 3 2 2 2 3 3 3 3 4 4 4 4 4 4 4 4 5 4 4 4 3 3 2 2 3 2 2 2 3 3 3 3 4 4 4
3 2 1 2 3 3 2 5 4 3 5 5 3 2 2 1 1 1 2 4 4 4 4 4 5 4 4 4 4 4 5 4 4 4 4 3 3 3 3 3 3 3 3 3 3 3 3 3 4
3 1 2 2 4 5 6 5 2 4 5 3 2 1 1 0 0 1 2 3 5 5 5 5 5 5 5 5 4 5 5 5 5 4 3 3 3 3 3 3 3 3 3 3 2 2 3 3 3
3 4 1 2 3 4 6 4 2 3 3 2 1 0 0 1 1 2 2 3 4 5 5 5 6 6 5 5 4 4 5 5 4 4 4 4 4 3 4 4 3 3 3 3 3 2 2 3 2
4 3 3 3 3 3 5 4 2 3 4 2 1 1 1 2 2 2 3 3 3 4 5 5 5 5 5 5 5 4 4 5 5 5 5 4 4 4 4 4 4 4 4 3 3 3 3 3 3
3 4 4 3 4 4 4 6 2 5 4 2 1 1 1 2 2 2 3 3 3 3 4 5 5 5 5 5 5 5 5 5 5 5 5 5 5 5 5 4 4 4 4 4 4 4 4 4 4
Wind_Direction
287 270 249 239 225 229 236 236 241 219 233 264 347 334 20 24 43 105 130 93 112 123 128 133 133 135 135 135 134 135 138 141 145 146 147 150 152 151 149 147 143 140 136 132 129 125 122 116 111
280 266 244 228 222 226 230 224 236 243 40 17 24 13 40 68 74 96 98 93 115 123 129 135 135 136 138 138 137 136 139 142 146 149 152 155 155 156 158 157 153 148 144 140 138 134 129 126 121
270 256 235 223 226 227 229 207 204 247 77 37 37 38 38 57 70 78 92 109 117 120 125 130 136 136 137 138 139 141 142 145 149 152 155 157 159 161 164 162 155 152 151 148 145 142 138 135 134
257 230 237 233 231 227 253 203 140 161 83 80 74 77 76 39 49 79 104 115 113 117 119 129 135 137 138 140 142 143 143 147 152 156 158 159 162 167 166 158 154 156 157 156 154 152 149 148 149
239 231 221 227 230 222 222 350 354 190 141 148 144 77 75 73 68 78 84 93 103 111 116 130 132 137 140 145 148 149 151 153 155 160 164 167 168 171 171 165 161 163 165 165 166 166 164 163 163
239 232 219 219 219 209 184 91 317 233 156 163 190 112 88 97 86 70 65 85 88 99 113 128 133 137 144 147 150 153 156 158 160 166 167 170 173 179 176 173 172 174 177 177 177 177 177 177 177
258 243 234 225 211 198 172 122 241 257 213 145 109 93 124 100 81 70 68 80 88 92 103 112 127 132 139 148 149 154 159 162 167 173 173 175 181 182 181 182 183 184 186 186 187 187 188 190 191
282 272 245 232 211 186 134 143 266 260 32 38 20 138 120 108 93 83 86 82 86 93 101 109 115 125 133 144 155 158 163 169 173 177 177 179 185 185 182 184 189 191 192 192 194 195 196 199 201
271 262 244 247 237 131 108 121 32 39 55 33 28 52 91 110 117 119 112 104 97 94 97 103 103 102 117 141 154 161 168 172 178 180 179 181 187 187 188 192 194 196 196 198 201 204 204 205 208
260 260 286 344 348 72 95 57 53 130 165 163 112 99 110 127 147 142 136 130 113 98 90 94 92 96 105 124 133 158 170 171 181 183 180 188 196 195 196 191 195 199 201 204 207 211 211 211 210
308 330 9 13 24 53 88 352 307 190 215 187 146 136 134 138 153 141 137 120 104 95 86 77 79 71 65 73 122 143 162 171 191 198 194 196 198 192 184 180 188 199 203 206 210 210 214 216 211
150 359 21 23 31 33 23 286 283 282 293 55 85 123 135 144 153 144 132 109 98 93 92 74 64 63 53 46 25 124 142 160 165 184 216 206 191 194 186 190 192 198 206 207 205 210 218 223 220
109 50 48 42 43 10 298 267 293 301 344 87 101 126 147 153 141 126 119 109 106 101 88 82 80 79 54 37 12 35 54 115 147 181 215 231 202 204 208 212 203 212 211 207 206 215 217 220 226
74 60 278 327 181 101 3 289 263 240 162 137 154 163 156 140 131 121 112 120 122 124 107 83 67 90 94 110 118 272 29 23 64 105 216 262 251 235 233 232 216 226 224 218 211 222 222 218 215
186 188 202 183 185 117 6 282 214 195 166 172 181 166 146 138 129 127 132 141 130 125 117 102 84 72 55 32 344 337 338 48 74 85 237 244 258 272 261 237 227 231 234 231 228 233 232 220 220
213 228 197 133 150 168 230 274 163 158 167 195 194 173 156 155 146 145 145 128 117 119 107 83 49 43 44 39 350 330 335 3 21 11 301 297 276 277 291 267 250 244 229 232 234 227 230 224 218
207 255 106 113 137 210 234 262 236 182 182 206 203 187 173 164 157 151 146 132 130 135 121 102 76 43 34 35 298 300 319 343 350 350 44 334 298 271 277 275 273 268 245 224 239 237 220 225 227
5 325 9 358 61 315 275 263 259 229 209 211 208 191 188 178 168 151 140 128 124 118 116 115 99 73 41 11 293 302 310 309 341 344 27 338 317 293 282 275 285 286 256 236 225 236 240 226 218
346 336 311 319 29 321 269 268 266 242 222 216 206 195 189 178 149 132 128 130 127 118 107 94 78 60 56 8 295 276 275 289 308 347 359 333 310 302 291 285 276 271 244 249 238 219 225 228 183
300 298 313 354 10 307 279 274 261 231 215 214 202 192 179 166 152 139 136 138 148 151 141 143 118 63 54 306 304 262 276 267 252 288 334 311 315 302 289 260 256 253 245 251 250 242 215 222 182
345 356 358 339 320 271 266 276 222 201 205 205 201 188 179 170 165 157 157 161 170 173 169 184 176 192 179 21 353 333 310 302 294 300 299 302 310 313 313 292 264 242 220 230 242 241 223 223 219
350 28 343 320 318 304 302 292 255 197 195 198 193 183 181 181 172 168 169 174 176 176 162 175 203 201 198 179 212 254 254 258 262 252 251 269 267 266 273 285 269 245 231 225 227 231 228 214 219
337 334 296 289 290 290 249 242 271 191 199 195 181 176 174 174 178 176 169 177 171 159 159 182 211 212 197 203 222 234 264 269 278 279 272 275 265 249 250 266 257 245 239 232 226 228 227 219 216
297 288 266 254 273 272 227 214 273 209 187 167 155 148 143 149 164 158 150 149 161 156 160 187 212 220 203 209 224 226 240 257 271 270 264 267 270 262 250 265 256 249 241 235 228 224 227 224 224
302 330 339 305 239 244 172 224 254 203 103 117 115 118 116 118 147 155 158 166 181 184 186 198 213 223 212 212 224 228 229 234 245 257 256 262 268 266 256 251 252 254 245 239 229 227 224 221 223
310 318 332 292 295 309 253 236 237 122 93 90 88 85 106 98 110 178 202 189 191 198 196 203 217 227 217 218 228 231 231 230 235 241 247 248 248 253 260 255 248 251 252 248 232 229 228 224 226
301 279 355 312 288 277 255 229 176 122 112 113 119 109 145 81 89 235 242 214 200 204 205 208 216 223 221 223 230 232 234 233 234 234 240 246 249 254 255 253 249 245 242 235 225 222 229 214 216
280 315 277 238 283 282 280 251 218 161 157 135 115 136 319 321 297 267 245 235 217 207 207 207 213 220 221 218 223 234 233 232 234 230 236 239 243 247 253 252 245 245 250 239 218 221 232 215 216
202 234 239 258 259 262 291 294 28 102 117 120 171 253 287 293 288 282 269 251 234 215 208 212 214 219 218 215 220 229 236 234 228 228 231 233 239 241 242 244 238 232 233 231 218 214 217 211 206
251 241 219 230 254 240 264 276 48 85 92 90 17 322 324 335 318 301 289 276 260 238 224 217 217 222 223 218 217 222 231 235 231 231 229 228 235 239 240 240 236 231 225 221 215 212 210 206 201
Height
1490 1492 1494 1497 1499 1497 1490 1480 1474 1474 1475 1476 1477 1478 1480 1485 1489 1501 1501 1500 1501 1502 1504 1507 1509 1511 1514 1516 1518 1520 1522 1524 1526 1527 1529 1530 1531 1532 1534 1535 1536 1537 1538 1539 1540 1540 1541 1542 1543
1489 1491 1495 1495 1495 1495 1485 1478 1475 1475 1476 1477 1478 1480 1482 1488 1492 1496 1499 1500 1501 1502 1504 1506 1509 1511 1514 1516 1518 1520 1522 1524 1526 1527 1529 1530 1532 1533 1534 1535 1536 1537 1538 1539 1540 1541 1542 1543 1544
1489 1491 1493 1491 1488 1487 1482 1476 1476 1477 1478 1479 1480 1482 1486 1492 1494 1497 1499 1500 1501 1503 1504 1506 1509 1511 1513 1516 1518 1520 1522 1524 1526 1527 1529 1530 1532 1533 1534 1535 1536 1538 1539 1540 1541 1542 1542 1543 1544
1489 1491 1490 1489 1484 1479 1477 1476 1476 1477 1479 1480 1482 1486 1490 1494 1495 1497 1499 1501 1502 1503 1504 1506 1509 1511 1513 1515 1518 1520 1522 1523 1525 1527 1528 1530 1531 1533 1534 1535 1536 1538 1539 1540 1541 1542 1543 1544 1545
1488 1488 1488 1486 1481 1477 1476 1477 1477 1478 1480 1482 1484 1487 1492 1494 1495 1497 1499 1501 1502 1503 1505 1507 1509 1511 1513 1515 1517 1519 1521 1523 1525 1526 1528 1529 1530 1532 1533 1535 1536 1537 1538 1539 1540 1541 1542 1543 1544
1488 1485 1486 1484 1478 1476 1477 1478 1479 1479 1481 1483 1486 1489 1493 1494 1496 1498 1499 1501 1503 1504 1505 1507 1509 1510 1512 1514 1516 1518 1520 1522 1524 1525 1527 1528 1529 1531 1532 1534 1535 1537 1538 1539 1540 1541 1542 1543 1544
1487 1484 1482 1477 1477 1477 1478 1479 1481 1480 1482 1484 1486 1489 1493 1494 1496 1498 1499 1501 1502 1504 1505 1507 1508 1510 1512 1514 1515 1517 1519 1521 1522 1524 1525 1527 1528 1530 1531 1533 1534 1535 1537 1538 1539 1540 1541 1542 1543
1485 1485 1480 1476 1476 1478 1478 1480 1482 1483 1484 1486 1488 1490 1493 1494 1496 1497 1499 1501 1502 1504 1505 1506 1508 1509 1511 1513 1514 1516 1518 1519 1521 1522 1524 1525 1527 1528 1530 1531 1532 1534 1535 1536 1537 1539 1540 1541 1542
1485 1487 1482 1478 1478 1478 1479 1481 1483 1484 1486 1488 1488 1489 1491 1494 1495 1497 1499 1501 1502 1503 1505 1506 1507 1508 1510 1512 1513 1515 1516 1518 1519 1521 1522 1524 1525 1526 1528 1529 1531 1532 1533 1534 1536 1537 1538 1539 1540
1486 1486 1482 1481 1479 1479 1481 1482 1484 1486 1487 1489 1490 1491 1492 1494 1495 1497 1499 1500 1501 1503 1504 1505 1506 1508 1509 1510 1512 1513 1515 1516 1518 1519 1520 1522 1523 1524 1526 1527 1529 1530 1531 1532 1533 1535 1536 1537 1538
1485 1485 1483 1482 1481 1482 1483 1484 1485 1486 1488 1488 1489 1490 1492 1493 1495 1497 1498 1499 1500 1501 1503 1504 1505 1506 1508 1509 1510 1512 1513 1514 1516 1517 1519 1520 1521 1522 1523 1525 1526 1527 1528 1529 1531 1532 1533 1534 1535
1486 1485 1484 1484 1483 1484 1485 1486 1487 1487 1488 1488 1489 1490 1492 1493 1495 1496 1497 1498 1499 1500 1501 1503 1504 1505 1506 1507 1508 1510 1511 1512 1514 1515 1516 1518 1519 1520 1521 1522 1523 1525 1526 1527 1528 1529 1530 1532 1533
1486 1486 1485 1485 1485 1486 1487 1487 1488 1487 1487 1488 1489 1490 1491 1493 1494 1495 1496 1497 1499 1499 1500 1502 1503 1503 1505 1506 1507 1508 1509 1510 1512 1513 1514 1515 1516 1517 1518 1519 1521 1522 1523 1524 1525 1526 1527 1529 1530
1487 1487 1487 1486 1487 1487 1488 1488 1488 1487 1488 1488 1489 1490 1491 1492 1493 1494 1495 1496 1497 1498 1499 1500 1501 1502 1503 1504 1505 1506 1507 1508 1509 1510 1512 1513 1514 1515 1516 1516 1517 1519 1520 1521 1522 1523 1524 1525 1527
1488 1488 1487 1487 1487 1488 1489 1489 1486 1486 1487 1488 1489 1490 1490 1491 1492 1493 1494 1495 1496 1497 1498 1498 1499 1500 1501 1502 1503 1504 1505 1506 1507 1508 1509 1510 1511 1512 1512 1513 1514 1515 1516 1518 1519 1520 1521 1522 1523
1487 1488 1490 1487 1487 1487 1492 1491 1484 1485 1486 1487 1488 1489 1489 1490 1491 1492 1493 1494 1494 1495 1496 1497 1498 1498 1499 1500 1501 1501 1502 1504 1504 1505 1506 1507 1508 1509 1509 1510 1511 1512 1513 1514 1515 1516 1517 1518 1519
1489 1491 1489 1488 1486 1487 1489 1489 1484 1484 1485 1486 1487 1487 1488 1489 1490 1491 1491 1492 1493 1493 1494 1495 1496 1496 1497 1498 1499 1500 1500 1501 1502 1502 1503 1504 1504 1505 1506 1507 1507 1509 1510 1511 1512 1513 1513 1514 1515
1494 1491 1489 1489 1487 1487 1488 1487 1483 1482 1483 1484 1485 1486 1487 1488 1489 1489 1490 1490 1491 1492 1492 1493 1494 1494 1495 1496 1496 1497 1498 1499 1499 1500 1500 1501 1502 1502 1503 1504 1504 1505 1506 1507 1508 1509 1510 1511 1512
1491 1492 1492 1489 1486 1488 1488 1485 1481 1480 1480 1481 1482 1484 1485 1486 1488 1488 1488 1489 1489 1490 1491 1491 1492 1493 1493 1493 1493 1493 1495 1496 1496 1497 1497 1498 1498 1499 1500 1500 1501 1502 1503 1503 1504 1505 1506 1507 1508
1493 1494 1492 1488 1487 1488 1486 1483 1478 1476 1477 1478 1479 1481 1483 1484 1486 1486 1487 1487 1487 1488 1489 1489 1490 1491 1491 1491 1491 1491 1492 1493 1493 1494 1494 1495 1495 1496 1496 1497 1498 1499 1499 1500 1501 1501 1502 1503 1504
1493 1495 1495 1495 1491 1486 1487 1483 1475 1473 1474 1476 1477 1479 1481 1482 1484 1485 1485 1485 1486 1486 1487 1487 1488 1488 1488 1489 1489 1489 1490 1490 1490 1491 1491 1492 1492 1493 1493 1494 1494 1495 1496 1496 1497 1498 1499 1499 1500
1497 1496 1496 1496 1497 1495 1488 1495 1477 1472 1472 1473 1475 1477 1479 1480 1482 1483 1483 1483 1484 1484 1485 1485 1485 1485 1486 1486 1486 1486 1486 1487 1487 1488 1488 1488 1489 1489 1489 1490 1491 1491 1492 1492 1493 1494 1495 1495 1496
1498 1496 1497 1496 1496 1497 1489 1493 1482 1470 1472 1471 1472 1474 1476 1478 1480 1480 1481 1481 1482 1482 1482 1483 1483 1483 1483 1483 1483 1483 1484 1484 1484 1485 1485 1485 1485 1486 1486 1486 1486 1487 1487 1488 1489 1490 1490 1491 1492
1498 1496 1494 1494 1497 1501 1486 1489 1483 1472 1469 1469 1470 1472 1474 1476 1477 1478 1479 1479 1479 1480 1480 1480 1480 1480 1480 1480 1480 1480 1481 1481 1481 1481 1481 1481 1482 1482 1482 1482 1483 1483 1483 1484 1485 1485 1486 1487 1488
1498 1502 1503 1502 1502 1495 1482 1485 1481 1468 1465 1467 1469 1471 1473 1474 1475 1476 1477 1477 1477 1477 1477 1477 1477 1477 1477 1477 1477 1477 1477 1477 1478 1478 1478 1477 1478 1478 1478 1478 1478 1479 1479 1480 1481 1481 1482 1483 1483
1500 1501 1509 1509 1501 1492 1485 1486 1474 1465 1465 1467 1469 1471 1472 1473 1474 1474 1475 1475 1475 1475 1474 1474 1474 1474 1474 1474 1474 1474 1474 1474 1474 1474 1474 1474 1473 1474 1474 1474 1474 1474 1475 1475 1476 1476 1477 1478 1479
1500 1501 1501 1506 1502 1501 1487 1472 1467 1465 1467 1468 1470 1471 1471 1472 1472 1473 1473 1473 1472 1472 1472 1472 1471 1471 1471 1470 1470 1470 1470 1470 1470 1470 1470 1470 1469 1470 1470 1470 1470 1470 1471 1471 1471 1472 1473 1473 1474
1502 1501 1504 1506 1506 1500 1482 1472 1473 1468 1468 1469 1469 1470 1470 1471 1470 1470 1470 1470 1469 1469 1469 1469 1468 1468 1468 1467 1467 1466 1466 1466 1466 1466 1466 1466 1466 1466 1465 1466 1466 1466 1466 1467 1467 1468 1468 1469 1470
1502 1503 1502 1502 1501 1503 1496 1482 1466 1466 1466 1468 1469 1469 1469 1469 1469 1468 1468 1467 1466 1466 1466 1465 1465 1465 1464 1464 1463 1463 1462 1462 1462 1461 1461 1461 1461 1461 1461 1461 1461 1461 1462 1462 1463 1463 1464 1464 1465
1496 1496 1499 1506 1502 1498 1500 1488 1465 1465 1465 1466 1467 1468 1467 1467 1467 1466 1465 1464 1464 1463 1463 1462 1462 1461 1461 1460 1460 1459 1458 1458 1457 1457 1457 1457 1457 1457 1457 1457 1457 1457 1458 1458 1459 1459 1459 1460 1460